[[{"header":{"parameterUnit":"m.s-1","parameterCategory":1,"la1":30.2991,"la2":30.254,"lo1":-89.0895,"lo2":-89.0444,"dy":0.0017,"dx":0.0017,"nx":28,"ny":28,"refTime":"2024-08-16T21:00:00:Z","depth":0,"parameterNumber":2,"parameterNumberName":"U-component_of_WINDS"},"data":[0,0,0,0,0,0,0,0,0,0,0,0,0,0,0,0,0,0,0,0,0,0,0,0,0,0,0,0,0,0,0,0,0,0,0,0,0,0,0,0,0,0,0,0,0,0,0,0,0,0,0,0,0,0,0,0,0,0,0.954,0.9539,0,0.9521,0.9521,0.9521,0.9499,0.9499,0.9499,0.9498,0.9479,0.9478,0.9478,0,0,0,0,0,0,0,0,0,0,0,0,0,0.9554,0.9553,0.954,0.9539,0.9539,0.9521,0.9521,0.9521,0.9499,0.9499,0.9499,0.9498,0.9479,0.9478,0.9478,0,0,0,0,0,0,0,0,0,0,0,0,0,0.9543,0.9553,0.954,0.9526,0.9525,0.9521,0.9521,0.9521,0.9499,0.9499,0.9498,0.9498,0.9479,0.9478,0.9478,0.9486,0,0,0.9477,0.9477,0,0,0,0,0,0,0,0,0.9543,0.9542,0.9529,0.9527,0.9526,0.9512,0.9519,0.9509,0.95,0.9509,0.9498,0.9498,0.949,0.9489,0.9486,0.9485,0.9484,0.9477,0.9477,0.9477,0.9477,0,0,0,0,0,0,0,0.9544,0.9543,0.9532,0.9528,0.9527,0.952,0.9518,0.9517,0.9502,0.9508,0.9507,0.9505,0.9489,0.9487,0.9486,0.9484,0.9477,0.9477,0.9476,0.9476,0.9484,0.9485,0,0,0,0,0,0,0.9547,0.9544,0.9533,0.9532,0.9533,0.9521,0.9518,0.9517,0.9502,0.95,0.9505,0.9504,0.9488,0.9486,0.9485,0.9491,0.9477,0.9476,0.9476,0.9484,0.9484,0.9485,0,0,0,0,0,0,0.9547,0.9546,0.9534,0.9537,0.9535,0.9521,0.952,0.9517,0.9514,0.95,0.9497,0.9505,0.9487,0.9485,0.9485,0.949,0.9476,0.9476,0.9483,0.9484,0.9485,0.9504,0,0,0,0,0,0,0.9548,0.9547,0.955,0.9537,0.9535,0.9535,0.952,0.9517,0.9514,0.9512,0.95,0.9497,0.9487,0.9486,0.9485,0.9489,0.9476,0.9483,0.9484,0.9484,0.9503,0.9506,0.9508,0,0,0,0,0,0.9549,0.9557,0.955,0.9549,0.9539,0.9535,0.9534,0.9522,0.9515,0.9517,0.9508,0.9498,0.949,0.9486,0.9485,0.9489,0.9483,0.9484,0.9484,0.9502,0.9505,0.9508,0,0,0,0,0,0,0.9571,0.9555,0.9548,0.9552,0.9545,0.9532,0.9535,0.9526,0.952,0.9519,0.9504,0.9501,0.9502,0.9496,0.9492,0.9494,0.9485,0.9485,0.9499,0.9501,0.9503,0.9504,0.9475,0,0,0,0,0,0.9576,0.9575,0.9561,0.9566,0.9563,0.955,0.9548,0.9539,0.9531,0.9528,0.9518,0.951,0.9506,0.9503,0.9499,0.9502,0.9498,0.9505,0.9507,0.9509,0.9509,0.9508,0.9511,0.9488,0.9488,0.9488,0,0,0.9587,0.9579,0.9579,0.9571,0.9564,0.9562,0.9547,0.9547,0.9544,0.9527,0.9526,0.9519,0.9509,0.951,0.951,0.9505,0.9515,0.951,0.9512,0.9511,0.951,0.9512,0.9514,0.9489,0.9488,0.9488,0,0,0.9606,0.9601,0.9603,0.9597,0.9587,0.9577,0.9578,0.9565,0.956,0.9558,0.9545,0.9541,0.9535,0.9527,0.9523,0.9537,0.9527,0.9536,0.9547,0.9546,0.9548,0.955,0.9553,0.9555,0.9536,0.9536,0.9536,0,0.9622,0.9619,0.9606,0.9605,0.9601,0.9585,0.9586,0.9581,0.957,0.9567,0.9561,0.955,0.9543,0.9541,0.9544,0.9541,0.954,0.9537,0.9549,0.955,0.9552,0.9555,0.9556,0.9538,0.9537,0.9537,0.9537,0,0.9636,0.9634,0.9638,0.9627,0.9623,0.9624,0.961,0.9607,0.9598,0.9589,0.9586,0.9576,0.9568,0.9567,0.9559,0.9563,0.956,0.9552,0.9542,0.9555,0.9557,0.9559,0.9539,0.9539,0.9538,0.9538,0,0,0.967,0.9651,0.9652,0.9646,0.9633,0.963,0.9629,0.9621,0.9619,0.9611,0.9609,0.9602,0.9594,0.9589,0.9579,0.9579,0.9588,0.957,0.957,0.9573,0.959,0.9596,0.9597,0.9581,0.9581,0.9582,0.9591,0,0.9685,0.9683,0.967,0.9671,0.9667,0.9651,0.965,0.9641,0.9632,0.9627,0.9617,0.9612,0.9603,0.9599,0.9598,0.9587,0.9591,0.9586,0.9578,0.9577,0.958,0.9599,0.9605,0.9614,0.9592,0.9592,0.9592,0,0.9703,0.9696,0.9697,0.9682,0.968,0.9679,0.9669,0.9665,0.9654,0.9648,0.9641,0.963,0.9626,0.9617,0.9611,0.9608,0.9603,0.9597,0.9597,0.9595,0.9585,0.9596,0.9617,0.9618,0.9594,0.9593,0.9593,0,0.9725,0.9716,0.9714,0.971,0.9693,0.9692,0.9685,0.9674,0.9669,0.966,0.9657,0.9648,0.9643,0.9636,0.9622,0.9617,0.9617,0.9607,0.961,0.961,0.961,0.961,0.9629,0.9609,0.9609,0.9609,0.9609,0,0.9743,0.9744,0.9724,0.9723,0.9722,0.9707,0.9706,0.9697,0.9687,0.9683,0.9669,0.9665,0.9647,0.9641,0.963,0.9626,0.9624,0.9618,0.9614,0.9618,0.9619,0.9615,0.9613,0.9609,0.9609,0.9609,0.9609,0,0.9768,0.9755,0.9751,0.9735,0.9731,0.9731,0.9716,0.9714,0.9704,0.9699,0.9697,0.968,0.9672,0.9657,0.9646,0.9638,0.9635,0.9631,0.9639,0.9637,0.964,0.964,0.9657,0.9657,0.9638,0.9638,0.9638,0,0.978,0.9779,0.9763,0.9759,0.9752,0.9747,0.9741,0.9726,0.9721,0.9707,0.9706,0.9697,0.9688,0.9676,0.9662,0.9653,0.9647,0.9654,0.9645,0.9649,0.9645,0.9645,0.9644,0.9655,0.9656,0.9656,0.9656,0,0.9801,0.9794,0.9788,0.9778,0.9772,0.9764,0.9755,0.9752,0.9735,0.9729,0.9721,0.9714,0.9701,0.9692,0.968,0.9671,0.966,0.9659,0.9659,0.9662,0.9666,0.9663,0.9643,0.9658,0.9658,0.9658,0.9658,0.9658,0.9819,0.9817,0.9804,0.9797,0.9788,0.978,0.9776,0.9765,0.9758,0.9746,0.9737,0.9729,0.9716,0.9698,0.969,0.9683,0.9678,0.9678,0.9678,0.9678,0.9679,0.9668,0.9681,0.9681,0.968,0.968,0.968,0,0.9838,0.9829,0.9822,0.981,0.9803,0.9794,0.9783,0.9778,0.9771,0.976,0.9751,0.9741,0.9731,0.9716,0.9705,0.9701,0.9696,0.9699,0.9699,0.9696,0.9685,0.9685,0.9703,0.9703,0.9703,0.9703,0.9703,0.9703,0.9848,0.9844,0.9835,0.9826,0.9817,0.9808,0.9803,0.9794,0.9785,0.9774,0.9765,0.9756,0.9743,0.973,0.972,0.9716,0.9712,0.9716,0.971,0.97,0.9697,0.9695,0.9696,0.9716,0.9716,0.9722,0.9723,0.9723]},{"header":{"parameterUnit":"m.s-1","parameterCategory":1,"la1":30.2991,"la2":30.254,"lo1":-89.0895,"lo2":-89.0444,"dy":0.0017,"dx":0.0017,"nx":28,"ny":28,"refTime":"2024-08-16T21:00:00:Z","depth":0,"parameterNumber":3,"parameterNumberName":"V-component_of_WINDS"},"data":[0,0,0,0,0,0,0,0,0,0,0,0,0,0,0,0,0,0,0,0,0,0,0,0,0,0,0,0,0,0,0,0,0,0,0,0,0,0,0,0,0,0,0,0,0,0,0,0,0,0,0,0,0,0,0,0,0,0,3.0609,3.0609,0,3.0647,3.0648,3.0648,3.0604,3.0603,3.0601,3.0599,3.0637,3.0639,3.0642,0,0,0,0,0,0,0,0,0,0,0,0,0,3.0495,3.0497,3.0609,3.0609,3.061,3.0647,3.0648,3.0648,3.0605,3.0603,3.0601,3.0599,3.0636,3.0639,3.0642,0,0,0,0,0,0,0,0,0,0,0,0,0,3.054,3.0498,3.0609,3.0593,3.0592,3.0647,3.0648,3.0648,3.0605,3.0602,3.06,3.0598,3.0635,3.0639,3.0642,3.0715,0,0,3.0654,3.0656,0,0,0,0,0,0,0,0,3.0537,3.0544,3.0595,3.0594,3.0593,3.0619,3.0621,3.0671,3.0606,3.06,3.0599,3.0597,3.0633,3.0636,3.0649,3.0717,3.0719,3.0654,3.0657,3.0658,3.0659,0,0,0,0,0,0,0,3.0534,3.0542,3.0624,3.0595,3.0594,3.0582,3.0586,3.063,3.063,3.06,3.0597,3.0602,3.0632,3.0645,3.0649,3.0719,3.0654,3.0658,3.066,3.0661,3.0846,3.0848,0,0,0,0,0,0,3.0533,3.054,3.0623,3.0625,3.0558,3.0586,3.0591,3.0613,3.0629,3.0629,3.0604,3.06,3.064,3.0645,3.0651,3.0735,3.0658,3.0662,3.0664,3.0843,3.0846,3.0849,0,0,0,0,0,0,3.0531,3.0541,3.0621,3.0582,3.0591,3.0591,3.0616,3.0615,3.0629,3.0632,3.0631,3.0619,3.0638,3.0645,3.0699,3.0736,3.0663,3.0667,3.084,3.0844,3.0848,3.0905,0,0,0,0,0,0,3.0528,3.0541,3.0569,3.0583,3.0593,3.067,3.0619,3.0617,3.0635,3.063,3.0646,3.0646,3.0637,3.0693,3.0703,3.0739,3.067,3.0837,3.0842,3.0846,3.09,3.0911,3.092,0,0,0,0,0,3.0524,3.0584,3.0571,3.0581,3.0629,3.0672,3.0678,3.0668,3.0639,3.0666,3.0668,3.0645,3.073,3.0699,3.0709,3.0748,3.0834,3.084,3.0846,3.0895,3.0908,3.0919,0,0,0,0,0,0,3.0575,3.0586,3.0571,3.0638,3.0654,3.0665,3.07,3.0682,3.0707,3.0701,3.0686,3.069,3.0747,3.0753,3.0718,3.0818,3.0777,3.0785,3.0812,3.0824,3.0834,3.083,3.0673,0,0,0,0,0,3.0594,3.0629,3.0636,3.0694,3.0703,3.07,3.0719,3.0709,3.0725,3.0732,3.0738,3.0755,3.0784,3.0805,3.0833,3.0901,3.0902,3.0932,3.0942,3.095,3.0957,3.099,3.1003,3.0868,3.0868,3.0868,0,0,3.0633,3.0644,3.0667,3.0704,3.0716,3.0751,3.0707,3.0746,3.0772,3.0738,3.0789,3.0794,3.081,3.0871,3.0898,3.0878,3.0994,3.0957,3.0964,3.0966,3.0998,3.1011,3.1022,3.0872,3.0872,3.0871,0,0,3.0723,3.0735,3.0784,3.0796,3.0815,3.0812,3.0823,3.0837,3.0838,3.0889,3.0864,3.0893,3.0946,3.0959,3.0972,3.1064,3.1043,3.1074,3.1125,3.1158,3.1168,3.1178,3.1208,3.122,3.1081,3.1081,3.1081,0,3.077,3.0823,3.0811,3.0852,3.0868,3.0839,3.0887,3.0899,3.0926,3.0937,3.0914,3.0979,3.0988,3.105,3.1072,3.1085,3.1096,3.1071,3.1168,3.1177,3.1186,3.1215,3.1226,3.1084,3.1084,3.1084,3.1083,0,3.0878,3.0915,3.0951,3.0977,3.0998,3.1042,3.1035,3.1057,3.1045,3.1045,3.1095,3.1106,3.1134,3.1148,3.1137,3.1208,3.1195,3.117,3.1129,3.1202,3.1229,3.124,3.1089,3.1088,3.1087,3.1086,0,0,3.1001,3.1019,3.1032,3.1042,3.106,3.1087,3.1129,3.1157,3.1175,3.1195,3.1228,3.1273,3.1249,3.1264,3.1254,3.1284,3.1353,3.1255,3.1256,3.1272,3.1429,3.1446,3.1459,3.134,3.1342,3.1344,3.1427,0,3.1089,3.1162,3.1152,3.1221,3.1254,3.1226,3.1262,3.1276,3.1276,3.1303,3.1303,3.1334,3.1302,3.131,3.1338,3.1339,3.1384,3.1333,3.1369,3.137,3.1364,3.1474,3.1492,3.157,3.1437,3.1439,3.1441,0,3.1202,3.1224,3.1297,3.1307,3.132,3.1353,3.1377,3.1403,3.1418,3.1415,3.1431,3.1415,3.1456,3.1415,3.1469,3.1434,3.1448,3.145,3.1453,3.1455,3.1409,3.1476,3.1595,3.1606,3.1458,3.1456,3.1455,0,3.1282,3.133,3.1379,3.1389,3.1403,3.1426,3.1433,3.1445,3.1461,3.1482,3.1492,3.1517,3.153,3.1549,3.154,3.1512,3.1595,3.1554,3.1593,3.1593,3.161,3.1609,3.1731,3.1623,3.1622,3.1622,3.1622,0,3.138,3.1425,3.1415,3.1445,3.1494,3.1481,3.1529,3.1533,3.1543,3.1572,3.155,3.1578,3.1564,3.1591,3.1584,3.1628,3.1635,3.1633,3.163,3.1634,3.1634,3.1642,3.1635,3.1625,3.1625,3.1624,3.1623,0,3.1477,3.1472,3.1524,3.1532,3.1535,3.157,3.1577,3.1604,3.1602,3.1639,3.1647,3.1644,3.1673,3.1666,3.1698,3.1693,3.1749,3.174,3.1744,3.1741,3.178,3.1775,3.191,3.1926,3.1808,3.181,3.1811,0,3.154,3.1574,3.1585,3.1603,3.1611,3.1641,3.1657,3.1645,3.1663,3.1681,3.1705,3.1733,3.1754,3.1802,3.1802,3.1826,3.1817,3.1862,3.182,3.1822,3.1815,3.1812,3.1815,3.187,3.1872,3.1873,3.1874,0,3.165,3.1646,3.1671,3.1694,3.1715,3.1733,3.1749,3.1765,3.1754,3.1775,3.1804,3.1821,3.1853,3.188,3.1902,3.1908,3.1888,3.1887,3.1897,3.19,3.19,3.1898,3.1765,3.1884,3.1883,3.1882,3.1881,3.1881,3.173,3.1758,3.177,3.1798,3.1808,3.1823,3.1849,3.1849,3.1874,3.19,3.1891,3.1924,3.1936,3.1963,3.1971,3.1996,3.1979,3.1994,3.1997,3.2001,3.2004,3.1897,3.2,3.2,3.2,3.2,3.1999,0,3.1838,3.1844,3.187,3.1892,3.1914,3.1894,3.191,3.1929,3.1959,3.1971,3.1992,3.2025,3.2051,3.2052,3.2076,3.2096,3.2087,3.2102,3.2099,3.2101,3.202,3.2008,3.2108,3.2108,3.2108,3.2108,3.2108,3.2108,3.1896,3.1941,3.1938,3.1987,3.1993,3.2025,3.2036,3.2049,3.2058,3.2096,3.2117,3.2118,3.2125,3.2149,3.2171,3.2171,3.2179,3.2197,3.2193,3.2118,3.2107,3.2096,3.2085,3.22,3.22,3.2272,3.2273,3.2273]}]]